Previsão horária em Semyhir'ya

Hoje, 6 Maio, Quinta-feira

Tempo Temperatura Precipitação Vento Pressão Humidade
00:00 +9°C° 0 mm 5 m/s 746 mmHg 70%
01:00 +8°C° 0 mm 5 m/s 746 mmHg 72%
02:00 +7°C° 0 mm 6 m/s 746 mmHg 74%
03:00 +7°C° 0 mm 6 m/s 746 mmHg 74%
04:00 +7°C° 0 mm 6 m/s 745 mmHg 73%
05:00 +7°C° 0 mm 6 m/s 745 mmHg 72%
06:00 +8°C° 0 mm 6 m/s 745 mmHg 70%
07:00 +9°C° 0 mm 7 m/s 745 mmHg 68%
08:00 +11°C° 0 mm 7 m/s 745 mmHg 65%
09:00 +12°C° 0 mm 7 m/s 745 mmHg 62%
10:00 +13°C° 0 mm 8 m/s 745 mmHg 58%
11:00 +15°C° 0 mm 8 m/s 745 mmHg 54%
12:00 +15°C° 0.1 mm 7 m/s 746 mmHg 56%
13:00 +15°C° 0.1 mm 7 m/s 746 mmHg 59%
14:00 +15°C° 0.1 mm 6 m/s 746 mmHg 61%
15:00 +13°C° 0.4 mm 6 m/s 746 mmHg 70%
16:00 +10°C° 0.4 mm 5 m/s 747 mmHg 78%
17:00 +8°C° 0.4 mm 4 m/s 747 mmHg 87%
18:00 +9°C° 0.1 mm 3 m/s 748 mmHg 87%
19:00 +8°C° 0.1 mm 2 m/s 748 mmHg 86%
20:00 +9°C° 0.1 mm 1 m/s 749 mmHg 86%
21:00 +9°C° 0 mm 1 m/s 749 mmHg 86%
22:00 +8°C° 0 mm 1 m/s 749 mmHg 85%
23:00 +8°C° 0 mm 1 m/s 749 mmHg 85%

Amanhã, 7 Maio, Sexta-feira

Tempo Temperatura Precipitação Vento Pressão Humidade
00:00 +8°C° 0 mm 1 m/s 749 mmHg 84%
01:00 +8°C° 0 mm 1 m/s 749 mmHg 84%
02:00 +7°C° 0 mm 1 m/s 749 mmHg 84%
03:00 +6°C° 0 mm 2 m/s 749 mmHg 83%
04:00 +7°C° 0 mm 2 m/s 749 mmHg 83%
05:00 +7°C° 0 mm 3 m/s 749 mmHg 82%
06:00 +8°C° 0 mm 3 m/s 749 mmHg 75%
07:00 +10°C° 0 mm 4 m/s 749 mmHg 68%
08:00 +12°C° 0 mm 5 m/s 749 mmHg 61%
09:00 +14°C° 0 mm 5 m/s 749 mmHg 59%
10:00 +15°C° 0 mm 6 m/s 748 mmHg 58%
11:00 +17°C° 0 mm 6 m/s 748 mmHg 57%
12:00 +18°C° 0.2 mm 7 m/s 748 mmHg 58%
13:00 +20°C° 0.2 mm 7 m/s 747 mmHg 58%
14:00 +20°C° 0.2 mm 7 m/s 747 mmHg 59%
15:00 +20°C° 0.2 mm 6 m/s 746 mmHg 60%
16:00 +20°C° 0.2 mm 6 m/s 746 mmHg 61%
17:00 +19°C° 0.2 mm 6 m/s 746 mmHg 62%
18:00 +17°C° 0 mm 6 m/s 746 mmHg 63%
19:00 +16°C° 0 mm 7 m/s 746 mmHg 64%
20:00 +15°C° 0 mm 7 m/s 746 mmHg 65%
21:00 +15°C° 0.1 mm 7 m/s 746 mmHg 67%
22:00 +14°C° 0.1 mm 7 m/s 746 mmHg 70%
23:00 +12°C° 0.1 mm 7 m/s 746 mmHg 72%

Depois de amanhã, 8 Maio, Sábado

Tempo Temperatura Precipitação Vento Pressão Humidade
00:00 +13°C° 0 mm 6 m/s 747 mmHg 78%
01:00 +12°C° 0 mm 5 m/s 747 mmHg 84%
02:00 +11°C° 0 mm 4 m/s 747 mmHg 90%
03:00 +12°C° 0.1 mm 4 m/s 748 mmHg 91%
04:00 +12°C° 0.1 mm 4 m/s 748 mmHg 92%
05:00 +12°C° 0.1 mm 4 m/s 749 mmHg 92%
06:00 +12°C° 0 mm 4 m/s 749 mmHg 87%
07:00 +13°C° 0 mm 4 m/s 750 mmHg 83%
08:00 +13°C° 0 mm 4 m/s 750 mmHg 78%
09:00 +14°C° 0 mm 4 m/s 751 mmHg 71%
10:00 +17°C° 0 mm 3 m/s 751 mmHg 65%
11:00 +18°C° 0 mm 3 m/s 751 mmHg 58%
12:00 +18°C° 0 mm 3 m/s 751 mmHg 55%
13:00 +19°C° 0 mm 2 m/s 751 mmHg 52%
14:00 +19°C° 0 mm 2 m/s 751 mmHg 49%
15:00 +19°C° 0 mm 2 m/s 751 mmHg 50%
16:00 +19°C° 0 mm 2 m/s 751 mmHg 51%
17:00 +19°C° 0 mm 2 m/s 751 mmHg 52%
18:00 +17°C° 0 mm 2 m/s 751 mmHg 57%
19:00 +16°C° 0 mm 2 m/s 751 mmHg 61%
20:00 +13°C° 0 mm 3 m/s 751 mmHg 66%
21:00 +13°C° 0 mm 3 m/s 751 mmHg 68%
22:00 +13°C° 0 mm 3 m/s 751 mmHg 70%
23:00 +13°C° 0 mm 3 m/s 751 mmHg 72%

9 Maio, Domingo

Tempo Temperatura Precipitação Vento Pressão Humidade
00:00 +13°C° 0 mm 3 m/s 750 mmHg 76%
01:00 +12°C° 0 mm 3 m/s 750 mmHg 80%
02:00 +12°C° 0 mm 3 m/s 750 mmHg 84%

10 Maio, Segunda-feira

Tempo Temperatura Precipitação Vento Pressão Humidade

11 Maio, Terça-feira

Tempo Temperatura Precipitação Vento Pressão Humidade
Mostrar mais

Necessitamos do seu Consentimento

A Meteoprog e os seus Fornecedores de Serviços podem armazenar e aceder a dados pessoais como cookies, identificadores do dispositivo ou outras tecnologias semelhantes existentes no seu dispositivo e processar estes dados para personalizar conteúdos e anúncios, assim como funcionalidades nas redes sociais e análise de tráfego.

  • Armazenar e/ou aceder a informações no seu dispositivo

    Os cookies, identificadores do dispositivo ou outras informações podem ser armazenados ou acedidos no seu dispositivo, para os fins acima indicados.

  • Anúncios e conteúdos personalizados, medição de anúncios e conteúdos, dados sobre o público-alvo e desenvolvimento de produtos

    Os anúncios e os conteúdos podem ser personalizados com base num perfil. Podem ser adicionados dados adicionais para uma maior personalização dos anúncios e dos conteúdos. A eficácia dos anúncios e dos conteúdos pode ser medida. Podem ser obtidas informações sobre o público que visualizou os anúncios e os conteúdos. Estes dados podem ser usados para desenvolver ou melhorar sistemas, softwares ou a experiência do utilizador.

Ao clicar em "Eu concordo”, permitirá o uso de cookies, identificadores do dispositivo e web beacons mencionados ou outras tecnologias semelhantes. As configurações do navegador do seu dispositivo podem ser alteradas.

Para certos fins, podem ser invocados interesses legítimos ao invés de consentimento. Pode ler mais informação sobre este assunto na nossa Política de Privacidade e Cookies.